[[{"header":{"parameterUnit":"m.s-1","parameterCategory":1,"la1":30.2991,"la2":30.254,"lo1":-89.0895,"lo2":-89.0444,"dx":0.0017,"dy":0.0017,"nx":28,"ny":28,"refTime":"2022-11-29T09:00:00:Z","depth":0,"parameterNumber":2,"parameterNumberName":"U-component_of_WINDS"},"data":[0,0,0,0,0,0,0,0,0,0,0,0,0,0,0,0,0,0,0,0,0,0,0,0,0,0,0,0,0,0,0,0,0,0,0,0,0,0,0,0,0,0,0,0,0,0,0,0,0,0,0,0,0,0,0,0,0,0,0.1001,0.1001,0,0.0988,0.0987,0.0987,0.0966,0.0966,0.0965,0.0965,0.0952,0.0952,0.0952,0,0,0,0,0,0,0,0,0,0,0,0,0,0.101,0.101,0.1001,0.1001,0.1001,0.0988,0.0987,0.0987,0.0966,0.0966,0.0965,0.0965,0.0952,0.0952,0.0952,0,0,0,0,0,0,0,0,0,0,0,0,0,0.1002,0.101,0.1001,0.0989,0.0988,0.0988,0.0987,0.0987,0.0966,0.0966,0.0965,0.0965,0.0952,0.0952,0.0952,0.0963,0,0,0.0952,0.0952,0,0,0,0,0,0,0,0,0.1003,0.1002,0.0991,0.099,0.0988,0.0978,0.0986,0.0979,0.0966,0.0974,0.0965,0.0964,0.0961,0.096,0.0959,0.0962,0.0962,0.0952,0.0952,0.0952,0.0952,0,0,0,0,0,0,0,0.1003,0.1002,0.0996,0.0991,0.0989,0.0984,0.0982,0.0984,0.0971,0.0974,0.0972,0.0971,0.096,0.0959,0.0958,0.0962,0.0952,0.0952,0.0952,0.0952,0.0974,0.0975,0,0,0,0,0,0,0.1006,0.1003,0.0996,0.0995,0.0994,0.0984,0.0982,0.0982,0.0971,0.0969,0.0971,0.097,0.0959,0.0958,0.0958,0.0971,0.0952,0.0952,0.0952,0.0974,0.0974,0.0975,0,0,0,0,0,0,0.1006,0.1005,0.0997,0.0999,0.0997,0.0985,0.0984,0.0982,0.0981,0.0969,0.0967,0.0972,0.0959,0.0958,0.0962,0.097,0.0952,0.0952,0.0973,0.0974,0.0975,0.0997,0,0,0,0,0,0,0.1006,0.1005,0.1009,0.0999,0.0997,0.1001,0.0985,0.0982,0.0981,0.0979,0.097,0.0967,0.0958,0.0962,0.0962,0.097,0.0952,0.0972,0.0973,0.0974,0.0995,0.0998,0.1001,0,0,0,0,0,0.1007,0.1016,0.101,0.1009,0.1002,0.1002,0.1001,0.099,0.0981,0.0985,0.0978,0.0968,0.0969,0.0963,0.0962,0.097,0.0972,0.0973,0.0974,0.0994,0.0998,0.1001,0,0,0,0,0,0,0.1028,0.1015,0.1007,0.1014,0.1009,0.0998,0.1003,0.0994,0.0991,0.099,0.0976,0.0974,0.098,0.0975,0.0969,0.0981,0.0969,0.097,0.0984,0.0987,0.099,0.0991,0.0952,0,0,0,0,0,0.1034,0.1034,0.1022,0.1029,0.1027,0.1016,0.1015,0.1007,0.1001,0.0999,0.0992,0.0987,0.0987,0.0986,0.0985,0.0994,0.0992,0.0999,0.1002,0.1005,0.1006,0.1011,0.1014,0.0979,0.0979,0.0979,0,0,0.1045,0.1038,0.1039,0.1034,0.1029,0.103,0.1014,0.1016,0.1017,0.0999,0.1003,0.0998,0.0991,0.0998,0.1001,0.0994,0.1015,0.1006,0.1008,0.1008,0.1013,0.1016,0.1019,0.098,0.098,0.098,0,0,0.1067,0.1061,0.1066,0.1062,0.1055,0.1047,0.1048,0.1039,0.1034,0.1038,0.1025,0.1026,0.1025,0.1021,0.1019,0.1039,0.103,0.1039,0.1054,0.1059,0.1061,0.1064,0.1071,0.1074,0.104,0.104,0.104,0,0.1082,0.1083,0.107,0.1073,0.1071,0.1055,0.1061,0.1057,0.105,0.105,0.1042,0.1041,0.1036,0.1041,0.1046,0.1045,0.1046,0.104,0.1062,0.1064,0.1066,0.1073,0.1076,0.1042,0.1041,0.1041,0.1041,0,0.1102,0.1103,0.1108,0.1102,0.1101,0.1105,0.1093,0.1093,0.1085,0.1078,0.1082,0.1075,0.1072,0.1072,0.1064,0.1077,0.1073,0.1064,0.1052,0.1071,0.1078,0.108,0.1043,0.1043,0.1042,0.1042,0,0,0.1138,0.1124,0.1126,0.1123,0.1114,0.1115,0.1118,0.1115,0.1116,0.1111,0.1114,0.1114,0.1105,0.1103,0.1094,0.1099,0.1116,0.1089,0.1089,0.1095,0.113,0.1137,0.114,0.1109,0.1109,0.111,0.113,0,0.1158,0.1163,0.1152,0.116,0.1161,0.1145,0.1148,0.1144,0.1137,0.1137,0.113,0.113,0.1118,0.1117,0.112,0.1113,0.1123,0.1111,0.1112,0.1112,0.1115,0.1144,0.1152,0.1171,0.1133,0.1133,0.1133,0,0.1182,0.1179,0.1187,0.1178,0.1178,0.1181,0.1177,0.1177,0.1171,0.1166,0.1164,0.1154,0.1157,0.1144,0.1149,0.1141,0.1141,0.1137,0.1138,0.1138,0.1125,0.1145,0.1177,0.1181,0.1137,0.1137,0.1137,0,0.1208,0.1206,0.121,0.1208,0.1197,0.12,0.1195,0.1189,0.1188,0.1185,0.1184,0.1181,0.118,0.1178,0.1168,0.116,0.1174,0.116,0.117,0.117,0.1174,0.1174,0.1207,0.1173,0.1173,0.1173,0.1173,0,0.1232,0.1238,0.1222,0.1225,0.1231,0.1217,0.1224,0.1218,0.1212,0.1214,0.1201,0.1202,0.1188,0.1189,0.1181,0.1186,0.1185,0.1181,0.1179,0.1183,0.1183,0.1183,0.1182,0.1173,0.1173,0.1173,0.1173,0,0.1262,0.1251,0.1256,0.1245,0.1242,0.1247,0.1238,0.1241,0.1233,0.1235,0.1235,0.1223,0.1223,0.1213,0.121,0.1205,0.1213,0.1208,0.1215,0.1214,0.1224,0.1224,0.1259,0.1263,0.1226,0.1226,0.1226,0,0.1279,0.1283,0.1272,0.1272,0.1269,0.1269,0.1268,0.1255,0.1255,0.1248,0.1251,0.125,0.1248,0.1249,0.124,0.1238,0.1234,0.1246,0.1233,0.1237,0.1235,0.1235,0.1235,0.1249,0.1249,0.125,0.125,0,0.1309,0.1304,0.1302,0.1299,0.1298,0.1296,0.1292,0.1293,0.1279,0.1279,0.1278,0.1277,0.1275,0.1274,0.127,0.1266,0.1256,0.1254,0.1256,0.126,0.1265,0.1263,0.1223,0.1254,0.1253,0.1253,0.1253,0.1253,0.1333,0.1336,0.1329,0.1329,0.1324,0.1321,0.1323,0.1316,0.1315,0.1312,0.1304,0.1305,0.1299,0.1294,0.129,0.1291,0.1285,0.1288,0.1289,0.129,0.1292,0.1264,0.129,0.129,0.129,0.129,0.129,0,0.1363,0.1358,0.1358,0.1353,0.1352,0.1342,0.1338,0.1338,0.1339,0.1334,0.1333,0.1333,0.1332,0.1323,0.1321,0.1323,0.1319,0.1323,0.1323,0.1322,0.1298,0.1296,0.1327,0.1327,0.1327,0.1327,0.1327,0.1327,0.1379,0.1384,0.1377,0.138,0.1375,0.1376,0.1374,0.1371,0.1367,0.1367,0.1366,0.1361,0.1354,0.1352,0.1351,0.1348,0.1348,0.1355,0.1351,0.1328,0.1324,0.1321,0.1319,0.1355,0.1355,0.1375,0.1376,0.1376]},{"header":{"parameterUnit":"m.s-1","parameterCategory":1,"la1":30.2991,"la2":30.254,"lo1":-89.0895,"lo2":-89.0444,"dx":0.0017,"dy":0.0017,"nx":28,"ny":28,"refTime":"2022-11-29T09:00:00:Z","depth":0,"parameterNumber":3,"parameterNumberName":"V-component_of_WINDS"},"data":[0,0,0,0,0,0,0,0,0,0,0,0,0,0,0,0,0,0,0,0,0,0,0,0,0,0,0,0,0,0,0,0,0,0,0,0,0,0,0,0,0,0,0,0,0,0,0,0,0,0,0,0,0,0,0,0,0,0,5.4955,5.4957,0,5.5102,5.5103,5.5105,5.5117,5.5115,5.5114,5.5112,5.5263,5.5268,5.5274,0,0,0,0,0,0,0,0,0,0,0,0,0,5.4688,5.4693,5.4955,5.4957,5.4959,5.5101,5.5104,5.5106,5.5117,5.5115,5.5113,5.5111,5.5261,5.5268,5.5274,0,0,0,0,0,0,0,0,0,0,0,0,0,5.4816,5.4694,5.4955,5.4982,5.4986,5.5101,5.5104,5.5106,5.5117,5.5115,5.5113,5.511,5.5259,5.5267,5.5275,5.5374,0,0,5.53,5.5304,0,0,0,0,0,0,0,0,5.4809,5.4826,5.4976,5.498,5.4985,5.5089,5.5064,5.5196,5.5118,5.5067,5.5112,5.5109,5.5207,5.5219,5.5252,5.5381,5.5387,5.5301,5.5306,5.531,5.5312,0,0,0,0,0,0,0,5.48,5.482,5.5013,5.4978,5.4984,5.4987,5.5003,5.5089,5.5149,5.5072,5.5073,5.509,5.5209,5.5244,5.5256,5.539,5.5301,5.5308,5.5313,5.5316,5.5611,5.5613,0,0,0,0,0,0,5.4786,5.4812,5.5009,5.5018,5.4889,5.4994,5.5011,5.5058,5.5148,5.5159,5.5092,5.509,5.5231,5.5246,5.5261,5.5385,5.5309,5.5317,5.5322,5.5608,5.5611,5.5614,0,0,0,0,0,0,5.478,5.4803,5.5003,5.4915,5.4941,5.5001,5.5053,5.5062,5.5097,5.5163,5.5174,5.5117,5.523,5.5249,5.5346,5.5391,5.5321,5.5328,5.5604,5.5609,5.5613,5.5633,0,0,0,0,0,0,5.4772,5.4801,5.4838,5.4916,5.4946,5.5085,5.5056,5.5066,5.5111,5.511,5.5189,5.52,5.5229,5.5334,5.5355,5.5401,5.5335,5.5601,5.5606,5.5611,5.5629,5.5638,5.5645,0,0,0,0,0,5.4762,5.4838,5.484,5.4864,5.4994,5.5087,5.5104,5.5136,5.5115,5.5154,5.5196,5.5198,5.5382,5.5344,5.5367,5.5416,5.5598,5.5605,5.5611,5.5625,5.5636,5.5645,0,0,0,0,0,0,5.4763,5.4848,5.4852,5.4954,5.5014,5.5089,5.5139,5.5146,5.5213,5.5209,5.5246,5.5264,5.536,5.5398,5.5354,5.5519,5.5488,5.5499,5.5491,5.5501,5.5509,5.5499,5.5342,0,0,0,0,0,5.4775,5.4844,5.4914,5.4998,5.5028,5.5078,5.512,5.514,5.5203,5.5228,5.5278,5.5339,5.5412,5.5458,5.5528,5.5634,5.5653,5.5679,5.5687,5.5694,5.5704,5.5766,5.578,5.5636,5.5636,5.5635,0,0,5.4801,5.4856,5.4897,5.5,5.5048,5.512,5.5099,5.5175,5.5229,5.5239,5.5335,5.5374,5.5445,5.5548,5.5596,5.5582,5.5748,5.5702,5.5707,5.5713,5.5774,5.5788,5.58,5.564,5.5639,5.5638,0,0,5.4884,5.4932,5.5008,5.5057,5.5131,5.5165,5.5183,5.5258,5.5285,5.5381,5.5392,5.5456,5.5579,5.563,5.5672,5.5778,5.5783,5.58,5.5843,5.5903,5.5914,5.5925,5.5965,5.5979,5.5809,5.5809,5.5809,0,5.4907,5.5015,5.5046,5.5123,5.517,5.5183,5.5261,5.5307,5.54,5.5432,5.5415,5.5572,5.562,5.5737,5.5763,5.5796,5.582,5.5792,5.591,5.5921,5.5931,5.597,5.5985,5.5811,5.5811,5.581,5.581,0,5.5041,5.5115,5.5168,5.5259,5.531,5.5387,5.5432,5.5481,5.5496,5.5532,5.5632,5.569,5.5774,5.5803,5.5817,5.5922,5.5912,5.5902,5.5873,5.5946,5.5984,5.5999,5.5813,5.5813,5.5812,5.5812,0,0,5.5129,5.5237,5.5256,5.5299,5.5382,5.5441,5.5519,5.5601,5.5644,5.5707,5.5776,5.588,5.5873,5.592,5.5942,5.5994,5.6078,5.5978,5.5981,5.5997,5.6201,5.621,5.6226,5.6081,5.6084,5.6086,5.6196,0,5.5224,5.5365,5.5397,5.5518,5.5589,5.5603,5.5672,5.5731,5.5767,5.5833,5.5873,5.5948,5.593,5.596,5.6012,5.6057,5.612,5.6049,5.6147,5.615,5.6132,5.6245,5.6255,5.6355,5.621,5.6213,5.6215,0,5.5354,5.5422,5.5551,5.5628,5.5659,5.572,5.5799,5.5861,5.593,5.5952,5.6007,5.6023,5.6107,5.6072,5.619,5.6141,5.6183,5.6211,5.6216,5.6229,5.6189,5.6264,5.6388,5.6404,5.6238,5.6236,5.6234,0,5.541,5.5533,5.5627,5.5662,5.5753,5.5797,5.5836,5.5902,5.595,5.6019,5.6052,5.6129,5.6172,5.6233,5.6271,5.6241,5.6387,5.6354,5.641,5.6409,5.6442,5.644,5.6577,5.6464,5.6464,5.6464,5.6463,0,5.5514,5.5593,5.5654,5.5711,5.5801,5.5837,5.5925,5.5965,5.6024,5.6091,5.6107,5.617,5.6215,5.6284,5.6314,5.6409,5.6428,5.645,5.6457,5.645,5.6448,5.648,5.6475,5.6468,5.6467,5.6466,5.6465,0,5.5592,5.5635,5.5739,5.5817,5.5838,5.5901,5.5969,5.6026,5.6062,5.6148,5.617,5.6227,5.631,5.6353,5.6456,5.6476,5.6584,5.6586,5.6562,5.6565,5.662,5.6615,5.6785,5.6811,5.6678,5.6679,5.668,0,5.5657,5.5718,5.5803,5.585,5.5891,5.5965,5.6015,5.6053,5.6104,5.6188,5.6236,5.632,5.6389,5.6521,5.6573,5.6653,5.6659,5.6712,5.6671,5.6663,5.6663,5.666,5.6668,5.6721,5.6722,5.6723,5.6724,0,5.5769,5.5788,5.5859,5.5939,5.5998,5.6062,5.6125,5.6162,5.6211,5.6268,5.6353,5.6407,5.6514,5.6598,5.6682,5.6724,5.6734,5.6736,5.6754,5.6748,5.6733,5.6745,5.6585,5.6733,5.6732,5.6731,5.6731,5.673,5.5845,5.5901,5.5971,5.605,5.6102,5.6162,5.6221,5.6265,5.6337,5.6427,5.6445,5.6536,5.6605,5.6719,5.6764,5.6837,5.6826,5.685,5.6857,5.6864,5.6868,5.6719,5.6851,5.6851,5.6851,5.6851,5.6851,0,5.5961,5.6006,5.6079,5.6168,5.6231,5.6233,5.6304,5.6357,5.6437,5.6501,5.6569,5.6669,5.6751,5.6809,5.6893,5.6941,5.6947,5.6962,5.696,5.697,5.6871,5.6849,5.6955,5.6955,5.6955,5.6955,5.6955,5.6955,5.6028,5.6125,5.6153,5.6276,5.6321,5.6411,5.6452,5.6508,5.6559,5.667,5.6738,5.6776,5.6838,5.6927,5.7004,5.7019,5.705,5.7065,5.7081,5.6988,5.6977,5.6966,5.6946,5.7071,5.7071,5.7175,5.7176,5.7177]}]]